Regional Weather Roundup
Issued by NWS

Home | Current Version | Previous Version | Text Only | Print | Product List | Glossary Off
Versions: 1 2 3 4 5 6 7 8 9 10 11 12 13 14 15 16 17 18 19 20 21 22 23 24

000
ASUS45 KCYS 221410
RWRWY

WYOMING REGIONAL WEATHER ROUNDUP
NATIONAL WEATHER SERVICE CHEYENNE WY
800 AM MDT WED OCT 22 2014

NOTE:  "FAIR" INDICATES FEW OR NO CLOUDS BELOW 12,000 FEET
WITH NO SIGNIFICANT WEATHER AND/OR OBSTRUCTIONS TO VISIBILITY.

WYZ001-221500-
YELLOWSTONE NATIONAL PARK

CITY           SKY/WX    TMP DP  RH WIND       PRES   REMARKS
LK YELLOWSTONE   N/A     29  27  92 CALM      30.18R
W YELLOWSTONE  NOT AVBL

$$
WYZ002>013-054>058-071-098>099-221500-
NORTHERN WYOMING

CITY           SKY/WX    TMP DP  RH WIND       PRES   REMARKS
JACKSON        NOT AVBL
CODY           PTCLDY    45  25  45 CALM      30.05S
GREYBULL       CLEAR     31  25  78 CALM      30.06R
WORLAND        FLURRIES  30  21  69 SW3       30.07R
SHERIDAN       CLEAR     34  25  69 CALM      30.03S
BUFFALO        CLEAR     39  25  57 S5        30.06R
GILLETTE       PTCLDY    33  28  81 W5        30.04R WCI  29
HULETT         FAIR      37  32  81 SW9       30.04  WCI  31
NEWCASTLE      FAIR      45  30  57 NW8       30.03

$$
WYZ014>020-022>026-101>103-221500-
CENTRAL WYOMING

CITY           SKY/WX    TMP DP  RH WIND       PRES   REMARKS
BIG PINEY      PTCLDY    18  15  88 N6        30.20R WCI  10
PINEDALE       SUNNY     19  19 100 W6        30.21R WCI  11
DUBOIS         FAIR      32  23  69 NW14      30.12R WCI  22
LANDER         CLEAR     31  21  66 CALM      30.09R
RIVERTON       CLEAR     35  22  58 W12       30.09R WCI  27
CASPER         CLEAR     34  21  59 W5        30.10R WCI  30
DOUGLAS        CLEAR     36  24  62 NW5       30.10R WCI  32

$$
WYZ021-027>030-104>119-221500-
SOUTHERN WYOMING

CITY           SKY/WX    TMP DP  RH WIND       PRES   REMARKS
EVANSTON       PTCLDY    28  22  78 CALM      30.20R
FORT BRIDGER   FAIR      34  29  81 SW3       30.22S
ROCK SPRINGS   PTCLDY    31  26  82 SW8       30.19R WCI  23
DIXON          CLOUDY    42  40  94 SE3       30.20R
RAWLINS        CLEAR     35  27  72 W16       30.15S WCI  25
SARATOGA       FAIR      34  32  93 W8        30.18R WCI  27
LARAMIE        PTCLDY    35  32  88 E3        30.13S
CHEYENNE       CLOUDY    46  36  68 W7        30.09R
TORRINGTON     CLOUDY    50  32  50 N10       30.03R
PINE BLUFFS    FAIR      45  41  87 CALM      30.08R

$$



USA.gov is the U.S. government's official web portal to all federal, state and local government web resources and services.